Regional Weather Roundup
Issued by NWS Sioux Falls, SD

Home | Current Version | Previous Version | Graphics & Text | Print | Product List | Glossary Off
Versions: 1 2 3 4 5 6 7 8 9 10 11 12 13 14 15 16 17 18 19 20 21 22 23 24 25 26 27 28 29 30 31 32 33 34 35 36 37 38 39 40 41 42 43 44 45 46 47 48 49 50

000
ASUS43 KFSD 260110
RWRFSD

WEATHER ROUNDUP FOR SE SOUTH DAKOTA/SW MINNESOTA/NW IOWA
NATIONAL WEATHER SERVICE SIOUX FALLS SD
800 PM CDT WED MAY 25 2016

NOTE: "FAIR" INDICATES FEW OR NO CLOUDS BELOW 12,000 FEET WITH NO
SIGNIFICANT WEATHER AND OR OBSTRUCTIONS TO VISIBILITY.


SDZ038>040-050-052>070-260200-
SOUTHEAST SOUTH DAKOTA

CITY           SKY/WX    TMP DP  RH WIND       PRES   REMARKS
BROOKINGS      CLEAR     73  60  63 SW6       29.78F
CHAMBERLAIN    PTSUNNY   70  57  63 N8        29.78F
HURON          RAIN      57  55  93 W8G23     29.80R FOG
MADISON        FAIR      70  64  83 W5        29.80F
MITCHELL       MOCLDY    74  63  68 SE6       29.77S
SIOUX FALLS    PTCLDY    74  59  59 W3        29.78S
WINNER         FAIR      68  55  63 W12       29.81S
YANKTON        CLEAR     79  61  53 N5        29.76S
$$

MNZ071-072-080-081-089-090-097-098-260200-
SOUTHWEST MINNESOTA

CITY           SKY/WX    TMP DP  RH WIND       PRES   REMARKS
FAIRMONT       CLEAR     79  54  41 W6        29.80S
JACKSON        CLEAR     77  55  47 SW5       29.82S
LUVERNE        CLEAR     75  59  57 W5        29.79S
MARSHALL       CLEAR     77  59  53 W9        29.77F
MONTEVIDEO     PTCLDY    79  55  44 W7        29.77S
PIPESTONE      CLEAR     75  61  60 W6        29.80S
REDWOOD FALLS  CLEAR     77  58  51 SW7       29.77S
TRACY          CLEAR     77  62  58 W3        29.78F
WINDOM         LGT RAIN  77  59  53 CALM      29.80S
WORTHINGTON    CLEAR     76  63  64 SW5       29.80F
$$

IAZ001>003-012>014-020>022-031-032-NEZ013-014-SDZ071-260200-
NORTHWEST IOWA

CITY           SKY/WX    TMP DP  RH WIND       PRES   REMARKS
CHEROKEE       PTCLDY    75  63  66 S8        29.81R
DENISON        CLOUDY    75  66  73 S6        29.81S
ESTHERVILLE    CLEAR     78  58  49 SW8       29.81R
LE MARS        PTCLDY    81  61  50 CALM      29.79S
ORANGE CITY    CLEAR     79  63  57 SW5       29.79F
SHELDON        CLEAR     79  61  53 S6        29.78S
SIOUX CITY     MOCLDY    77  63  61 S8        29.78S
SPENCER        MOCLDY    79  58  48 S8        29.80S
STORM LAKE     CLEAR     79  59  50 SW9       29.83S
$$

ABBREVIATIONS USED IN REMARKS
   TC - TEMPERATURE IN CELSIUS
  WCI - WIND CHILL INDEX
   HX - HEAT INDEX
  VSB - VISIBILITY





USA.gov is the U.S. government's official web portal to all federal, state and local government web resources and services.